Simultaneous Nadir Overpasses (SNOs) Predictions

Prediction of SNOs between NOAA-19 and METOP-C Satellite Orbit:

Table of predicted SNOs for the next 14.0 days since TLE Epoch: 12/11/2021
Index Date (NOAA-19) Time (NOAA-19) Lat,Lon (NOAA-19) SZA (NOAA-19 ) Date (METOP-C) Time (METOP-C) Lat,Lon (METOP-C) SZA (METOP-C ) Distance(km) Time Diff (sec)
1 12/12/2021 07:56:07 -80.70, -87.79 74.84 12/12/2021 07:57:15 -80.70, -87.90 74.83 2.03 68
2 12/12/2021 08:47:02 80.71, 79.41 105.16 12/12/2021 08:47:56 80.71, 79.59 105.20 3.18 54
3 12/12/2021 09:38:07 -80.70,-113.23 74.84 12/12/2021 09:38:37 -80.69,-113.38 74.85 2.95 30
4 12/12/2021 10:29:02 80.71, 53.97 105.17 12/12/2021 10:29:18 80.70, 54.11 105.18 2.44 16
5 12/12/2021 11:20:07 -80.70,-138.67 74.83 12/12/2021 11:19:58 -80.70,-138.52 74.81 2.76 9
6 12/12/2021 12:11:02 80.70, 28.53 105.18 12/12/2021 12:10:40 80.69, 28.63 105.17 2.00 22
7 12/12/2021 13:02:07 -80.70,-164.11 74.82 12/12/2021 13:01:20 -80.70,-164.00 74.83 2.02 47
8 12/12/2021 13:53:01 80.69, 3.45 105.20 12/12/2021 13:52:01 80.71, 3.49 105.20 1.93 60
9 12/23/2021 12:32:27 -80.71,-156.62 74.61 12/23/2021 12:33:22 -80.72,-156.64 74.58 0.96 55
10 12/23/2021 13:23:23 80.71, 10.51 105.39 12/23/2021 13:24:04 80.71, 10.50 105.40 0.82 41
11 12/23/2021 14:14:27 -80.71, 177.93 74.61 12/23/2021 14:14:44 -80.71, 177.88 74.60 1.05 17
12 12/23/2021 15:05:23 80.71, -14.93 105.39 12/23/2021 15:05:26 80.70, -14.98 105.38 1.82 3
13 12/23/2021 15:56:27 -80.71, 152.49 74.60 12/23/2021 15:56:06 -80.70, 152.39 74.62 1.83 21
14 12/23/2021 16:47:22 80.70, -40.01 105.41 12/23/2021 16:46:47 80.71, -40.12 105.40 2.27 35
15 12/23/2021 17:38:27 -80.71, 127.04 74.60 12/23/2021 17:37:28 -80.69, 126.91 74.65 2.77 59



Historial Predications of SNOs between NOAA-19 and METOP-C
